| time (UTC) | temp C | wind direction | speed KPH | gust KPH | rain 1hr cm | rain 24hr cm | rain mn cm | humidity % | barometer mb |
| 20260507061507 | 13 | 299 | 1.6 | 9.7 | 0.03 | 0.13 | 0.03 | 90 | 1006.0 |
| 20260507060008 | 13 | 294 | 1.6 | 8.0 | 0.03 | 0.13 | 0.03 | 90 | 1006.2 |
| 20260507054506 | 13 | 313 | 1.6 | 8.0 | 0.03 | 0.13 | 0.03 | 91 | 1006.4 |
| 20260507053006 | 14 | 302 | 1.6 | 11.3 | 0.03 | 0.13 | 0.03 | 92 | 1006.4 |
| 20260507051509 | 14 | 267 | 1.6 | 11.3 | 0.00 | 0.10 | 0.00 | 92 | 1006.4 |
| 20260507050010 | 14 | 254 | 3.2 | 14.5 | 0.00 | 0.10 | 0.00 | 93 | 1006.5 |
| 20260507044509 | 14 | 340 | 0.0 | 3.2 | 0.00 | 0.10 | 0.00 | 94 | 1006.4 |
| 20260507043008 | 14 | 273 | 0.0 | 3.2 | 0.00 | 0.10 | 0.00 | 94 | 1006.4 |
| 20260507041508 | 14 | 209 | 0.0 | 3.2 | 0.00 | 0.10 | 0.00 | 94 | 1006.4 |
| 20260507040024 | 14 | 263 | 0.0 | 3.2 | 0.00 | 0.10 | 0.00 | 94 | 1006.5 |
| 20260507034508 | 14 | 251 | 0.0 | 4.8 | 0.00 | 0.10 | 0.10 | 94 | 1006.5 |
| 20260507033008 | 14 | 224 | 1.6 | 8.0 | 0.00 | 0.10 | 0.10 | 94 | 1006.5 |
| 20260507031508 | 14 | 202 | 1.6 | 14.5 | 0.00 | 0.10 | 0.10 | 94 | 1006.3 |
| 20260507030012 | 13 | 213 | 1.6 | 14.5 | 0.00 | 0.10 | 0.10 | 94 | 1006.2 |
| 20260507024508 | 13 | 261 | 3.2 | 11.3 | 0.00 | 0.10 | 0.10 | 94 | 1006.0 |
| 20260507021508 | 13 | 227 | 1.6 | 9.7 | 0.00 | 0.10 | 0.10 | 94 | 1006.1 |
| 20260507014507 | 13 | 225 | 3.2 | 16.1 | 0.00 | 0.10 | 0.10 | 94 | 1006.3 |
| 20260507013007 | 13 | 196 | 3.2 | 14.5 | 0.00 | 0.10 | 0.10 | 95 | 1006.5 |
| 20260507011507 | 13 | 190 | 3.2 | 8.0 | 0.00 | 0.10 | 0.10 | 95 | 1006.7 |
| 20260507010011 | 13 | 219 | 1.6 | 12.9 | 0.00 | 0.10 | 0.10 | 95 | 1006.8 |
| 20260507004508 | 13 | 272 | 3.2 | 12.9 | 0.00 | 0.10 | 0.10 | 94 | 1006.7 |
| 20260507003007 | 13 | 184 | 4.8 | 14.5 | 0.00 | 0.10 | 0.10 | 94 | 1006.5 |
| 20260507001506 | 13 | 217 | 4.8 | 14.5 | 0.00 | 0.10 | 0.10 | 94 | 1006.5 |
| 20260507000010 | 13 | 202 | 4.8 | 16.1 | 0.00 | 0.10 | 0.10 | 94 | 1006.5 |
| 20260506234513 | 13 | 229 | 4.8 | 16.1 | 0.00 | 0.10 | 0.10 | 94 | 1006.4 |
| 20260506233007 | 13 | 208 | 6.4 | 14.5 | 0.00 | 0.10 | 0.10 | 93 | 1006.4 |
| 20260506231507 | 13 | 204 | 4.8 | 17.7 | 0.03 | 0.10 | 0.10 | 93 | 1006.5 |
| 20260506224507 | 13 | 195 | 3.2 | 12.9 | 0.05 | 0.10 | 0.10 | 93 | 1006.5 |
| 20260506223007 | 13 | 225 | 3.2 | 11.3 | 0.05 | 0.10 | 0.10 | 93 | 1006.4 |
| 20260506221508 | 14 | 184 | 4.8 | 20.9 | 0.03 | 0.08 | 0.08 | 92 | 1006.8 |
| 20260506220011 | 14 | 231 | 4.8 | 11.3 | 0.03 | 0.08 | 0.08 | 91 | 1006.9 |
| 20260506214507 | 15 | 236 | 4.8 | 14.5 | 0.03 | 0.05 | 0.05 | 91 | 1006.9 |
| 20260506213008 | 15 | 257 | 4.8 | 17.7 | 0.03 | 0.05 | 0.05 | 90 | 1007.1 |
| 20260506211508 | 15 | 226 | 4.8 | 17.7 | 0.03 | 0.05 | 0.05 | 91 | 1007.3 |
| 20260506210010 | 15 | 209 | 4.8 | 14.5 | 0.05 | 0.05 | 0.05 | 90 | 1007.2 |
| 20260506204507 | 15 | 219 | 6.4 | 17.7 | 0.03 | 0.03 | 0.03 | 89 | 1007.4 |
| 20260506203007 | 15 | 198 | 3.2 | 12.9 | 0.03 | 0.03 | 0.03 | 87 | 1007.5 |
| 20260506201508 | 16 | 249 | 3.2 | 16.1 | 0.03 | 0.03 | 0.03 | 86 | 1007.6 |
| 20260506194508 | 16 | 211 | 4.8 | 11.3 | 0.00 | 0.00 | 0.00 | 80 | 1007.5 |
| 20260506193007 | 17 | 241 | 4.8 | 17.7 | 0.00 | 0.00 | 0.00 | 76 | 1007.7 |
| 20260506191507 | 18 | 202 | 6.4 | 19.3 | 0.00 | 0.00 | 0.00 | 73 | 1007.7 |
| 20260506190009 | 18 | 163 | 4.8 | 20.9 | 0.00 | 0.00 | 0.00 | 69 | 1007.6 |
| 20260506184507 | 18 | 121 | 8.0 | 27.4 | 0.00 | 0.00 | 0.00 | 69 | 1007.6 |
| 20260506183007 | 19 | 219 | 6.4 | 20.9 | 0.00 | 0.00 | 0.00 | 67 | 1007.8 |
| 20260506180009 | 20 | 192 | 8.0 | 22.5 | 0.00 | 0.00 | 0.00 | 65 | 1008.0 |
| 20260506174507 | 20 | 184 | 8.0 | 25.7 | 0.00 | 0.00 | 0.00 | 64 | 1008.2 |
| 20260506173007 | 20 | 199 | 6.4 | 25.7 | 0.00 | 0.00 | 0.00 | 64 | 1008.4 |
| 20260506171507 | 20 | 169 | 6.4 | 16.1 | 0.00 | 0.00 | 0.00 | 64 | 1008.2 |
| 20260506164508 | 20 | 198 | 6.4 | 24.1 | 0.00 | 0.00 | 0.00 | 66 | 1008.8 |
| 20260506163007 | 20 | 190 | 4.8 | 11.3 | 0.00 | 0.00 | 0.00 | 66 | 1008.9 |
| 20260506161507 | 20 | 219 | 6.4 | 25.7 | 0.00 | 0.00 | 0.00 | 65 | 1009.2 |
| 20260506160011 | 20 | 201 | 6.4 | 22.5 | 0.00 | 0.00 | 0.00 | 65 | 1009.4 |
| 20260506154508 | 20 | 217 | 6.4 | 17.7 | 0.00 | 0.00 | 0.00 | 65 | 1009.6 |
| 20260506153007 | 20 | 205 | 6.4 | 16.1 | 0.00 | 0.00 | 0.00 | 65 | 1009.9 |
| 20260506150008 | 20 | 196 | 8.0 | 16.1 | 0.00 | 0.00 | 0.00 | 65 | 1010.1 |
| 20260506144506 | 20 | 360 | 8.0 | 25.7 | 0.00 | 0.00 | 0.00 | 65 | 1009.9 |
| 20260506143006 | 20 | 202 | 3.2 | 14.5 | 0.00 | 0.00 | 0.00 | 66 | 1009.7 |
| 20260506141507 | 20 | 221 | 6.4 | 20.9 | 0.00 | 0.00 | 0.00 | 66 | 1009.8 |
| 20260506140008 | 19 | 228 | 6.4 | 19.3 | 0.00 | 0.00 | 0.00 | 69 | 1009.8 |
| 20260506133006 | 18 | 196 | 4.8 | 16.1 | 0.00 | 0.00 | 0.00 | 70 | 1010.3 |
| 20260506131508 | 18 | 186 | 4.8 | 16.1 | 0.00 | 0.00 | 0.00 | 73 | 1010.4 |
| 20260506130010 | 17 | 238 | 3.2 | 17.7 | 0.00 | 0.00 | 0.00 | 77 | 1010.5 |
| 20260506124505 | 16 | 232 | 3.2 | 16.1 | 0.00 | 0.00 | 0.00 | 78 | 1010.6 |
| 20260506123007 | 16 | 207 | 1.6 | 22.5 | 0.00 | 0.00 | 0.00 | 78 | 1010.5 |
| 20260506121508 | 16 | 191 | 6.4 | 17.7 | 0.00 | 0.00 | 0.00 | 80 | 1010.3 |
| 20260506114506 | 15 | 207 | 3.2 | 17.7 | 0.00 | 0.00 | 0.00 | 82 | 1010.9 |
| 20260506113006 | 15 | 238 | 1.6 | 8.0 | 0.00 | 0.00 | 0.00 | 83 | 1011.0 |
| 20260506111506 | 15 | 203 | 3.2 | 9.7 | 0.00 | 0.00 | 0.00 | 85 | 1010.8 |
| 20260506110011 | 14 | 211 | 1.6 | 6.4 | 0.00 | 0.00 | 0.00 | 86 | 1010.8 |
| 20260506104506 | 14 | 263 | 3.2 | 12.9 | 0.00 | 0.00 | 0.00 | 85 | 1010.9 |
| 20260506103006 | 14 | 202 | 4.8 | 14.5 | 0.00 | 0.00 | 0.00 | 85 | 1010.9 |
| 20260506101506 | 14 | 265 | 3.2 | 9.7 | 0.00 | 0.00 | 0.00 | 84 | 1010.8 |
| 20260506094506 | 14 | 219 | 3.2 | 14.5 | 0.00 | 0.00 | 0.00 | 83 | 1010.3 |
| 20260506093009 | 14 | 191 | 3.2 | 11.3 | 0.00 | 0.00 | 0.00 | 83 | 1010.5 |
| 20260506091506 | 14 | 213 | 4.8 | 12.9 | 0.00 | 0.00 | 0.00 | 83 | 1010.3 |
| 20260506090010 | 15 | 205 | 4.8 | 14.5 | 0.00 | 0.00 | 0.00 | 83 | 1010.4 |
| 20260506081506 | 15 | 259 | 3.2 | 14.5 | 0.00 | 0.00 | 0.00 | 81 | 1010.5 |
| 20260506073008 | 15 | 203 | 4.8 | 16.1 | 0.00 | 0.00 | 0.00 | 80 | 1010.4 |
| 20260506071506 | 15 | 207 | 3.2 | 12.9 | 0.00 | 0.00 | 0.00 | 80 | 1010.4 |